Overview Statistics Trail Chart Weather Telemetry Raw packets
 

This is the latest recevied weather packets stored in our database for station/object KW4UJ. If no packets are shown the sender has not sent any weather packets the latest 10 day(s).

<< 82 83 84 85 86 87 88 >>
Time Temp. Humidity Pressure Rain* Wind** Luminosity Snow
1788029710 28.89° C 50% 1023.4 hPa 0 mm - 552 W/m² -
1788029405 28.33° C 49% 1023.3 hPa 0 mm - 569 W/m² -
1788029103 28.33° C 49% 1023.4 hPa 0 mm - 566 W/m² -
1788028799 28.33° C 49% 1023.4 hPa 0 mm - 571 W/m² -
1788028493 28.89° C 50% 1023.4 hPa 0 mm - 575 W/m² -
1788028188 28.89° C 48% 1023.5 hPa 0 mm - 581 W/m² -
1788027883 28.89° C 48% 1023.5 hPa 0 mm - 591 W/m² -
1788027578 28.33° C 50% 1023.5 hPa 0 mm - 596 W/m² -
1788027278 27.78° C 51% 1023.6 hPa 0 mm - 598 W/m² -
1788026978 27.78° C 52% 1023.7 hPa 0 mm - 603 W/m² -
1788026672 28.33° C 50% 1023.7 hPa 0 mm - 607 W/m² -
1788026368 27.78° C 50% 1023.7 hPa 0 mm - 611 W/m² -
1788026064 27.78° C 50% 1023.9 hPa 0 mm - 612 W/m² -
1788025762 27.22° C 50% 1023.8 hPa 0 mm - 613 W/m² -
1788025468 27.22° C 50% 1024 hPa 0 mm - 615 W/m² -
1788025158 27.78° C 51% 1024 hPa 0 mm - 617 W/m² -
1788024858 27.22° C 51% 1024.1 hPa 0 mm - 614 W/m² -
1788024554 27.22° C 51% 1024.2 hPa 0 mm - 612 W/m² -
1788024253 26.67° C 50% 1024.3 hPa 0 mm - 612 W/m² -
1788023948 26.67° C 50% 1024.4 hPa 0 mm - 606 W/m² -
1788023651 26.67° C 53% 1024.3 hPa 0 mm - 611 W/m² -
1788023340 26.67° C 51% 1024.4 hPa 0 mm - 610 W/m² -
1788023039 26.67° C 53% 1024.6 hPa 0 mm - 604 W/m² -
1788022737 26.67° C 51% 1024.4 hPa 0 mm - 604 W/m² -
1788022436 26.67° C 52% 1024.5 hPa 0 mm - 595 W/m² -

* Rain latest hour (hover to see other rain measurements)
** Current wind speed in m/s (hover to see current wind gust speed)